Location: Berg
(47.2344°N, 9.5296°E)
Time: 15:52:09
(UTC+00:00)

AAUSAT CUBESAT 2 - Visible Passes

Search period start: 28 November 2021 00:00
Search period end: 08 December 2021 00:00
Orbit: 570 x 588 km, 97.5° (Epoch: 28 November)

Date Brightness Start Highest point End Pass type
(mag) Time Alt. Az. Time Alt. Az. Time Alt. Az.
28 Nov ? 03:27:29 10° NE 03:29:49 15° E 03:32:08 10° SE visible
28 Nov ? 05:01:30 10° N 05:05:30 55° WNW 05:09:30 10° SSW visible
29 Nov ? 03:31:57 10° NE 03:34:36 16° E 03:37:13 10° SE visible
29 Nov ? 05:06:15 10° N 05:10:13 49° WNW 05:14:09 10° SSW visible
30 Nov ? 03:36:28 10° NE 03:39:22 18° E 03:42:14 10° SE visible
30 Nov ? 05:11:01 10° N 05:14:54 43° WNW 05:18:48 10° SW visible
30 Nov ? 16:02:46 10° S 16:06:41 46° W 16:10:37 10° NNW visible
01 Dec ? 03:41:01 10° NE 03:44:08 20° E 03:47:13 10° SE visible
01 Dec ? 05:15:47 10° N 05:19:36 39° WNW 05:23:25 10° SW visible
01 Dec ? 16:07:34 10° S 16:11:25 41° W 16:15:17 10° NNW visible
02 Dec ? 03:45:35 10° NE 03:48:53 23° E 03:52:09 10° SSE visible
02 Dec ? 05:20:34 10° N 05:24:18 35° WNW 05:28:01 10° SW visible
02 Dec ? 16:12:23 10° SSW 16:16:09 36° W 16:19:56 10° NNW visible
03 Dec ? 03:50:10 10° NE 03:53:38 25° E 03:57:03 10° SSE visible
03 Dec ? 05:25:20 10° N 05:28:59 31° WNW 05:32:37 10° SW visible
03 Dec ? 16:17:13 10° SSW 16:20:53 32° W 16:24:35 10° NNW visible
04 Dec ? 03:54:47 10° NE 03:58:22 28° E 04:01:56 10° SSE visible
04 Dec ? 05:30:07 10° N 05:33:39 28° WNW 05:37:10 10° SW visible
04 Dec ? 16:22:04 10° SSW 16:25:37 29° W 16:29:12 10° NW visible
05 Dec ? 03:59:23 10° NNE 04:03:06 32° E 04:06:47 10° SSE visible
05 Dec ? 05:34:55 10° N 05:38:19 26° WNW 05:41:43 10° WSW visible
05 Dec ? 16:26:56 10° SSW 16:30:21 26° W 16:33:48 10° NW visible
06 Dec ? 04:04:01 10° NNE 04:07:50 36° E 04:11:38 10° SSE visible
06 Dec ? 05:39:43 10° NNW 05:42:59 23° WNW 05:46:15 10° WSW visible
06 Dec ? 16:31:48 10° SSW 16:35:05 23° W 16:38:22 10° NW visible
07 Dec ? 04:08:39 10° NNE 04:12:33 40° E 04:16:26 10° SSE visible
07 Dec ? 05:44:32 10° NNW 05:47:39 21° WNW 05:50:45 10° WSW visible
07 Dec ? 16:36:43 10° SW 16:39:49 21° W 16:42:56 10° NW visible
